SCP
0 0 0 0 0 0 0 0 0 0 0 0 0 0 0 0 0 0 0 0 0 0 0 0 0 0 0 0 0 0 0 0 0 0 0 0 0 0 0 0 0 0 0
0 0 0 0 0 0 0 0 0 0 0 0 0 0 0 0 0 0 0 0 0 0 0 0 0 0 0 0 0 0 0 0 0 0 0 0 0 0 0 0 0 0 0
0 0 0 0 0 0 0 0 0 0 0 0 0 0 0 0 0 0 0 0 0 0 0 0 0 0 0 0 0 0 0 0 0 0 0 0 0 0 0 0 0 0 0
0 0 0 0 0 0 0 0 0 0 0 0 0 0 0 0 0 0 0 0 0 0 0 0 0 0 0 0 0 0 0 0 0 0 0 0 0 0 0 0 0 0 0
0 0 0 0 0 0 0 0 0 0 0 0 0 0 0 0 0 0 0 0 0 0 0 0 0 0 0 0 0 0 0 0 0 0 0 0 0 0 0 0 0 0 0
0 0 0 0 0 0 0 0 0 0 0 0 0 0 0 0 0 0 0 0 0 0 0 0 0 0 0 0 0 0 0 0 0 0 0 0 0 0 0 0 0 0 0
0 0 0 0 0 0 0 0 0 0 0 0 0 0 0 0 0 0 0 0 0 0 0 0 0 0 0 0 0 0 0 0 0 0 0 0 0 0 0 0 0 0 0
0 0 0 0 0 0 0 0 0 0 0 0 0 0 0 0 0 0 0 0 0 0 0 0 0 0 0 0 0 0 0 0 0 0 0 0 0 0 0 0 0 0 0
0 0 0 0 0 0 0 0 0 0 0 0 0 0 0 0 0 0 0 0 0 0 0 0 0 0 0 0 0 0 0 0 0 0 0 0 0 0 0 0 0 0 0
0 0 0 0 0 0 0 0 0 0 0 0 0 0 0 0 0 0 0 0 0 0 0 0 0 0 0 0 0 0 0 0 0 0 0 0 0 0 0 0 0 0 0
0 0 0 0 0 0 0 0 0 0 0 0 0 0 0 0 0 0 0 0 0 0 0 0 0 0 0 0 0 0 0 0 0 0 0 0 0 0 0 0 0 0 0
0 0 0 0 0 0 0 0 0 0 0 0 0 0 0 0 0 0 0 0 0 0 0 0 0 0 0 0 0 0 0 0 0 0 0 0 0 0 0 0 0 0 0
0 0 0 0 0 0 0 0 0 0 0 0 0 0 0 0 0 0 0 0 0 0 0 0 0 0 0 0 0 0 0 0 0 0 0 0 0 0 0 0 0 0 0
0 0 0 0 0 0 0 0 0 0 0 0 0 0 0 0 0 0 0 0 0 0 0 0 0 0 0 0 0 0 0 0 0 0 0 0 0 0 0 0 0 0 0
0 0 0 0 0 0 0 0 0 0 0 0 0 0 0 0 0 0 0 0 0 0 0 0 0 0 0 0 0 0 0 0 0 0 0 0 0 0 0 0 0 0 0
0 0 0 0 0 0 0 0 0 0 0 0 0 0 0 0 0 0 0 0 0 0 0 0 0 0 0 0 0 0 0 0 0 0 0 0 0 0 0 0 0 0 0
0 0 0 0 0 0 0 0 0 0 0 0 0 0 0 0 0 0 0 0 0 0 0 0 0 0 0 0 0 0 0 0 0 0 0 0 0 0 0 0 0 0 0
0 0 0 0 0 0 0 0 0 0 0 0 0 0 0 0 0 0 0 0 0 0 0 0 0 0 0 0 0 0 0 0 0 0 0 0 0 0 0 0 0 0 0
0 0 0 0 0 0 0 0 0 0 0 0 0 0 0 0 0 0 0 0 0 0 0 0 0 0 0 0 0 0 0 0 0 0 0 0 0 0 0 0 0 0 0
0 0 0 0 0 0 0 0 0 0 0 0 0 0 0 0 0 0 0 0 0 0 0 0 0 0 0 0 0 0 0 0 0 0 0 0 0 0 0 0 0 0 0
0 0 0 0 0 0 0 0 0 0 0 0 0 0 0 0 0 0 0 0 0 0 0 0 0 0 0 0 0 0 0 0 0 0 0 0 0 0 0 0 0 0 0
0 0 0 0 0 0 0 0 0 0 0 0 0 0 0 0 0 0 0 0 0 0 0 0 0 0 0 0 0 0 0 0 0 0 0 0 0 0 0 0 0 0 0
0 0 0 0 0 0 0 0 0 0 0 0 0 0 0 0 0 0 0 0 0 0 0 0 0 0 0 0 0 0 0 0 0 0 0 0 0 0 0 0 0 0 0
0 0 0 0 0 0 0 0 0 0 0 0 0 0 0 0 0 0 0 0 0 0 0 0 0 0 0 0 0 0 0 0 0 0 0 0 0 0 0 0 0 0 0
0 0 0 0 0 0 0 0 0 0 0 0 0 0 0 0 0 0 0 0 0 0 0 0 0 0 0 0 0 0 0 0 0 0 0 0 0 0 0 0 0 0 0
0 0 0 0 0 0 0 0 0 0 0 0 0 0 0 0 0 0 0 0 0 0 0 0 0 0 0 0 0 0 0 0 0 0 0 0 0 0 0 0 0 0 0
Wind_Speed
13 12 11 11 10 10 9 9 8 7 7 7 7 6 6 6 6 6 7 7 8 9 8 9 10 10 8 8 8 9 9 10 14 13 11 12 15 15 14 14 14 14 13
13 12 12 11 10 10 9 9 8 8 7 7 6 6 6 6 7 7 8 8 9 10 10 10 11 9 11 10 9 11 10 11 13 17 13 12 15 15 15 15 13 12 13
13 13 12 12 11 11 10 9 8 8 7 7 7 7 7 7 7 8 9 9 10 11 11 12 12 12 13 11 11 11 10 11 11 13 14 12 12 12 14 14 15 13 13
13 13 13 13 12 11 10 9 9 8 8 7 7 7 7 7 7 8 9 10 11 11 12 12 13 13 13 13 12 13 12 12 12 12 13 12 12 13 12 11 12 11 11
14 14 13 12 11 10 9 9 8 8 7 7 7 7 7 7 7 8 8 10 11 12 13 13 13 15 17 15 13 13 13 12 11 12 13 12 12 11 10 10 12 12 12
14 13 12 11 10 10 9 9 8 8 7 7 7 8 8 7 9 13 12 11 12 13 14 14 14 15 17 20 22 21 20 16 14 13 13 13 15 14 12 11 11 12 12
13 12 12 11 11 10 9 8 8 8 7 8 8 8 10 10 11 14 15 13 13 14 14 13 11 11 16 14 17 20 20 22 22 17 16 16 16 14 14 14 13 13 13
12 12 11 11 10 9 9 8 8 7 7 7 8 9 9 10 12 15 16 14 14 14 14 14 14 14 13 14 14 15 15 15 17 15 14 15 16 15 14 14 14 13 12
12 11 11 10 10 9 9 8 7 6 7 7 7 9 10 11 12 14 15 11 11 14 13 13 14 15 17 19 16 16 16 15 16 21 22 22 24 23 18 10 9 10 11
10 10 9 9 9 8 8 6 5 6 7 7 8 9 10 12 12 14 15 10 11 11 11 12 15 16 19 20 16 15 16 15 14 14 15 17 16 15 17 12 9 9 10
8 8 8 8 7 7 6 5 5 5 6 7 9 9 10 12 13 15 15 10 10 11 11 10 10 17 19 21 20 16 18 18 14 13 11 10 9 8 8 8 7 7 9
8 8 7 7 5 4 5 5 5 6 7 8 9 9 8 9 11 12 15 16 16 14 12 11 11 18 21 23 19 18 22 20 11 10 10 9 8 8 7 6 6 7 8
8 7 6 5 4 4 5 5 5 6 6 7 7 8 8 7 8 14 16 17 19 14 12 18 21 23 23 18 18 20 17 11 9 9 10 9 8 7 6 6 6 7 9
7 6 5 4 4 4 4 4 5 6 6 7 7 8 8 8 8 7 8 10 13 13 12 15 20 21 17 17 15 12 9 8 9 9 9 9 8 7 6 6 7 6 6
6 4 4 3 4 4 5 5 6 7 7 8 8 8 9 10 10 14 13 11 10 11 13 11 10 10 9 8 8 8 8 8 8 8 8 8 8 7 7 6 6 6 6
4 4 3 3 3 4 5 6 8 11 13 15 17 16 13 16 20 21 21 22 23 22 16 11 11 10 10 9 9 8 7 8 8 7 7 7 8 7 7 6 6 6 6
4 3 2 3 4 4 5 6 7 8 12 15 17 19 19 20 21 22 22 22 22 21 13 11 10 10 9 9 9 9 8 8 7 7 8 7 7 7 7 7 6 6 6
3 3 3 4 4 5 6 6 7 8 9 9 11 15 18 19 20 21 21 19 13 11 9 10 10 10 9 9 9 9 8 8 7 7 8 8 7 7 7 7 6 6 6
3 3 3 4 5 6 6 7 8 9 10 10 9 10 14 16 18 18 17 11 10 10 10 10 10 9 9 9 9 9 9 8 8 8 8 8 7 7 7 7 6 8 7
3 5 5 5 5 6 7 7 8 9 10 10 10 10 9 10 10 10 10 9 10 10 10 10 10 9 9 9 9 8 8 8 8 7 8 8 7 7 8 8 7 6 6
3 4 7 6 6 7 7 8 9 9 10 10 11 11 15 11 11 12 10 10 10 10 10 10 10 9 9 8 8 9 9 8 8 8 7 7 7 7 7 7 6 6 6
4 5 5 6 7 7 8 9 9 10 11 13 11 12 17 12 11 11 10 10 10 10 10 10 9 9 9 9 9 9 9 9 8 8 8 8 7 7 7 7 6 6 6
5 6 7 7 8 10 11 10 10 11 11 12 12 11 11 10 11 11 11 11 10 10 10 10 10 9 9 9 9 9 9 9 8 8 8 8 7 7 7 7 8 7 7
6 7 8 8 9 9 10 10 11 11 12 12 12 12 12 11 12 13 12 11 11 11 10 10 10 12 15 12 10 9 9 10 9 8 11 10 9 8 8 8 8 8 8
7 8 8 9 9 10 11 11 11 12 12 12 12 12 12 12 12 12 12 11 12 12 13 12 10 11 14 15 14 11 14 17 16 12 10 10 11 11 10 10 8 8 8
7 8 9 9 10 10 11 11 12 12 12 12 12 12 12 12 12 12 12 11 11 11 12 11 12 14 15 13 15 17 19 19 19 20 13 10 11 11 10 9 11 10 9
Wind_Direction
179 176 174 173 172 172 176 179 178 179 183 192 199 210 220 229 237 244 251 260 264 268 265 266 270 273 273 271 268 267 266 268 276 284 287 292 293 292 293 292 292 293 292
180 178 177 173 173 177 181 181 182 186 191 198 205 215 225 235 243 251 258 261 264 269 271 271 272 273 271 272 270 269 270 271 276 286 290 292 292 293 292 291 290 289 289
180 179 177 177 179 184 184 182 185 190 195 201 210 221 230 238 247 255 262 265 267 269 271 272 273 274 274 273 273 273 273 274 275 280 286 289 289 290 291 288 288 288 290
182 183 184 185 185 186 184 184 189 194 200 209 218 227 236 243 249 256 262 266 269 270 270 269 269 270 272 275 276 276 276 276 275 277 281 285 287 289 287 288 290 289 289
185 187 189 185 182 182 184 187 191 198 207 215 224 233 240 244 245 250 258 261 266 270 270 268 267 266 269 272 273 275 275 273 275 276 279 284 285 288 287 289 289 292 291
188 189 184 180 180 184 187 189 194 203 211 218 229 239 247 248 251 258 267 271 271 272 274 274 272 270 270 271 273 275 275 276 278 277 279 280 284 287 288 287 289 290 292
188 186 181 180 182 186 187 192 200 209 217 227 237 245 253 256 257 265 269 275 276 276 276 278 277 275 277 277 279 280 278 275 273 275 276 279 284 286 287 286 283 282 285
185 183 181 181 184 185 191 200 208 216 224 235 245 252 260 263 264 270 276 276 276 275 275 276 278 279 279 281 281 278 276 274 272 271 271 275 278 281 280 281 282 284 285
184 182 180 181 183 187 197 206 213 222 234 243 252 258 263 268 267 273 279 281 276 277 276 275 275 277 280 283 282 281 281 279 275 271 271 274 277 278 280 282 283 286 288
181 178 176 180 184 191 201 210 219 229 242 251 256 260 265 271 273 275 278 277 278 280 279 276 274 275 280 283 283 283 283 285 285 285 281 279 278 279 280 275 278 281 285
166 165 169 177 185 193 202 212 224 235 248 256 262 265 267 270 275 274 275 276 278 282 281 281 279 281 282 284 284 281 282 288 288 286 285 280 275 270 267 265 260 261 271
154 158 165 174 175 188 203 219 232 243 255 262 267 271 270 270 269 273 276 277 280 281 282 283 283 286 287 287 286 283 287 292 288 286 283 281 279 276 272 267 258 255 260
153 159 164 171 180 196 215 230 242 247 254 264 269 274 278 277 276 276 280 282 282 280 280 283 287 289 291 288 284 287 290 287 283 282 283 283 283 283 280 273 262 254 256
157 161 168 182 197 211 224 234 242 248 255 263 270 275 280 280 279 280 281 284 283 282 282 284 287 286 282 280 283 284 279 275 277 279 282 284 284 279 273 271 270 271 271
161 168 182 200 218 234 240 244 249 252 256 263 270 273 279 280 280 285 289 289 288 286 291 287 283 282 278 275 276 277 277 276 277 275 278 281 280 277 274 271 267 268 270
170 185 200 219 235 248 259 263 245 251 263 263 266 270 274 276 287 290 291 292 293 293 293 285 284 285 284 285 285 282 279 278 277 277 276 278 279 277 276 271 262 261 268
191 205 221 237 248 257 264 271 279 269 259 263 267 271 273 281 286 290 292 293 292 293 286 280 281 283 284 284 283 280 278 279 279 277 275 276 276 274 272 271 265 261 265
207 222 237 248 256 261 265 269 275 282 285 280 272 272 276 280 285 288 291 294 287 281 275 277 279 280 281 281 280 278 275 275 274 273 273 273 272 271 270 268 266 263 267
222 235 245 257 261 265 268 270 273 276 278 283 284 280 278 282 284 284 287 280 278 278 277 276 276 278 278 278 278 276 272 271 272 273 274 273 270 268 266 266 266 264 261
235 243 256 265 266 267 268 270 273 275 277 279 281 285 290 288 284 282 277 273 273 274 276 276 276 275 277 277 276 274 271 269 270 269 271 271 268 266 265 264 263 261 259
248 252 258 264 265 268 270 271 273 274 276 278 279 282 286 286 283 282 280 276 274 275 276 276 275 274 273 273 272 269 268 268 269 269 270 270 269 267 264 262 260 255 256
256 262 263 266 269 270 272 272 273 274 277 279 282 283 285 281 278 278 277 277 277 276 276 276 274 272 271 270 269 267 266 267 267 266 266 266 266 266 264 260 257 253 249
262 266 269 270 271 274 276 274 274 275 277 279 282 283 282 279 278 278 279 279 279 277 276 273 272 271 269 267 265 263 263 264 264 264 266 267 264 263 262 259 254 251 249
267 271 274 276 276 275 276 277 277 278 279 281 282 282 282 281 280 280 280 280 279 278 275 273 271 270 270 270 267 262 260 260 259 258 258 259 260 259 258 257 254 248 246
273 276 277 278 279 279 280 280 280 281 281 281 281 281 281 281 281 281 281 280 280 277 277 276 272 271 270 268 266 264 262 261 261 258 253 250 251 251 252 253 251 248 241
279 280 280 280 280 281 281 282 282 283 282 282 281 281 281 281 281 281 281 279 278 278 277 275 272 271 271 269 268 266 265 263 262 260 255 251 247 245 244 244 244 242 240